Vorticity
17 15 14 15 12 11 10 9 6 4 5 6 7 6 6 7 9 8 9 8 5 6 1 0 3 4 4 5 5 6 6 7 6 6 6 4 4 4 4 4 4 4 5 4 4
22 20 18 15 13 12 9 6 7 5 5 9 5 6 7 8 8 8 9 7 6 3 0 2 3 3 3 5 6 5 5 5 7 8 9 8 7 7 6 5 5 4 3 4 4
13 13 14 12 11 9 6 5 7 5 8 6 6 6 6 8 9 9 6 6 5 4 2 3 3 3 4 4 6 6 5 6 5 6 5 7 7 10 7 9 7 6 5 5 5
8 9 9 8 7 6 6 6 6 7 9 6 8 6 6 9 8 7 6 5 4 4 4 4 4 4 3 4 3 4 4 5 4 4 4 4 6 6 7 6 7 8 9 8 5
5 5 5 6 6 6 6 6 7 8 9 8 8 6 7 8 9 5 7 5 5 5 4 4 5 4 3 3 4 4 3 4 4 4 4 5 4 9 4 7 8 7 7 8 10
6 6 5 6 7 8 8 9 9 9 9 8 8 5 6 3 5 7 6 6 7 7 7 4 3 5 4 4 3 3 3 3 3 2 3 4 5 7 2 5 6 7 8 8 8
6 7 7 6 9 11 11 10 10 10 9 8 8 5 4 6 5 6 9 7 7 8 5 3 2 4 5 5 4 4 4 4 5 4 3 5 8 7 7 5 5 6 6 6 7
6 6 6 7 5 7 9 9 8 9 10 9 9 8 5 6 5 5 6 9 9 7 4 3 3 3 2 4 4 4 3 4 4 4 5 5 4 4 5 5 5 5 5 5 4
6 5 6 6 6 5 5 8 8 8 8 8 7 8 6 4 6 5 4 5 7 9 10 7 7 3 5 5 5 5 4 4 5 5 5 5 2 4 5 5 6 7 6 6 6
6 7 7 7 7 7 6 6 6 8 7 6 6 6 8 7 6 6 6 7 7 7 7 7 7 7 9 11 7 5 7 7 5 5 5 5 2 5 6 5 6 8 8 7 7
6 6 6 6 7 7 7 7 7 7 6 7 8 7 6 6 5 6 5 5 5 6 6 3 6 15 3 3 7 8 7 6 7 7 8 5 5 7 8 9 9 9 8 9 7
6 5 5 6 6 6 6 6 7 8 8 7 6 7 7 6 6 6 6 5 6 5 5 6 7 3 5 7 4 5 6 7 2 4 6 6 5 3 8 9 10 9 10 7 10
7 7 6 6 6 6 7 7 6 6 6 6 6 8 9 8 8 7 7 7 6 6 6 4 7 5 5 5 5 5 4 6 4 4 4 5 6 6 9 13 11 9 6 6 6
6 7 7 6 6 6 6 6 7 9 8 8 7 7 7 8 6 6 6 6 7 6 6 5 6 6 6 5 6 3 6 4 6 6 8 5 9 6 8 10 3 4 8 6 6
4 4 4 6 5 4 4 4 5 4 6 8 10 11 11 11 13 12 14 13 12 9 9 10 8 8 8 10 12 11 9 10 10 10 9 6 7 8 5 4 6 4 4 8 7
7 7 7 6 6 6 5 5 4 4 5 0 -2 -1 -0 -0 -1 -2 1 2 2 3 6 3 6 8 8 6 6 9 6 5 5 4 3 6 2 6 5 3 5 6 5 5 4
8 9 9 10 9 9 8 7 7 6 7 8 6 5 5 4 5 5 5 6 4 7 5 5 4 3 4 3 1 2 4 6 7 4 5 6 5 5 5 4 1 6 5 4 4
8 12 12 12 9 10 10 11 12 10 10 9 8 9 6 5 6 7 6 5 6 7 6 6 3 1 4 6 4 4 4 1 7 6 6 5 8 7 6 5 3 3 8 8 9
13 11 8 9 9 13 19 15 13 14 16 17 18 16 19 21 18 15 11 11 11 10 9 13 9 11 9 6 5 9 6 12 15 8 14 6 10 11 7 8 7 7 7 4 5
14 12 12 13 15 17 12 12 10 10 9 8 8 8 8 10 10 13 10 9 12 11 12 15 22 6 5 9 10 12 12 12 5 9 10 9 7 7 6 6 7 6 3 4 7
14 15 14 14 14 13 11 11 13 12 10 10 10 12 11 12 11 9 11 12 11 12 10 12 16 5 9 7 7 5 5 4 7 4 5 10 9 8 9 9 10 9 8 7 7
13 10 7 9 6 8 10 10 13 11 13 15 15 12 9 8 8 5 3 7 8 12 11 9 8 16 11 13 17 16 7 5 9 13 6 7 10 8 4 8 10 10 10 9 9
2 1 1 4 9 13 11 11 7 5 4 3 4 5 5 4 5 4 4 1 5 5 3 7 3 5 19 16 10 12 16 15 7 17 9 10 9 12 10 6 5 6 8 8 9
3 1 7 9 12 6 7 6 6 2 2 4 3 3 6 7 1 3 9 6 5 8 6 6 8 10 12 18 16 9 16 1 28 15 11 10 9 4 9 14 4 10 8 10 9
6 9 9 9 10 9 7 4 5 5 4 1 2 2 3 2 4 2 4 4 7 7 7 11 11 11 10 13 14 13 13 17 21 -11 -4 -1 3 26 15 27 44 28 15 5 3
4 7 7 9 8 6 7 6 5 5 1 4 2 5 8 9 3 2 7 11 9 12 17 14 16 14 12 12 19 17 17 19 19 33 21 9 2 2 9 -6 -4 6 10 22 25
7 7 6 11 11 9 8 8 7 4 6 5 4 5 9 6 10 14 15 20 21 17 14 17 15 22 19 26 25 26 29 30 27 23 31 7 11 8 1 -1 34 -19 -20 -6 -18
Height
5731 5733 5736 5740 5745 5749 5754 5757 5761 5765 5767 5769 5772 5774 5776 5777 5779 5782 5783 5786 5788 5790 5792 5793 5795 5796 5797 5798 5799 5800 5801 5803 5804 5804 5804 5804 5805 5806 5807 5808 5809 5809 5809 5809 5809
5732 5733 5737 5741 5744 5749 5753 5756 5759 5762 5765 5767 5770 5772 5774 5775 5778 5780 5783 5784 5786 5788 5790 5791 5793 5794 5796 5797 5798 5799 5800 5801 5801 5802 5803 5802 5803 5803 5804 5804 5805 5806 5806 5806 5806
5735 5736 5739 5742 5746 5749 5752 5755 5758 5760 5763 5765 5768 5771 5772 5773 5777 5779 5780 5783 5784 5786 5788 5790 5791 5793 5794 5795 5797 5797 5797 5799 5799 5799 5800 5800 5800 5801 5800 5799 5801 5802 5802 5802 5803
5739 5740 5742 5745 5747 5750 5752 5754 5756 5759 5761 5763 5766 5768 5770 5772 5776 5777 5778 5780 5782 5784 5786 5788 5789 5791 5792 5793 5794 5794 5795 5796 5796 5796 5797 5797 5797 5798 5798 5794 5797 5799 5798 5798 5799
5742 5743 5744 5746 5748 5750 5751 5753 5755 5757 5759 5762 5764 5766 5768 5770 5773 5774 5776 5778 5779 5781 5783 5784 5786 5788 5789 5790 5791 5791 5792 5793 5793 5793 5793 5793 5793 5795 5791 5792 5795 5795 5794 5794 5794
5743 5744 5745 5746 5747 5749 5750 5751 5753 5755 5757 5759 5762 5763 5766 5768 5770 5772 5774 5775 5777 5778 5779 5781 5783 5784 5785 5786 5787 5788 5788 5789 5789 5789 5790 5790 5790 5791 5787 5789 5790 5790 5791 5791 5791
5743 5743 5744 5745 5746 5747 5748 5749 5750 5752 5754 5756 5758 5760 5763 5765 5767 5770 5770 5772 5773 5774 5776 5777 5779 5780 5781 5781 5782 5783 5784 5784 5783 5784 5786 5785 5787 5786 5786 5784 5784 5785 5786 5786 5786
5742 5742 5743 5743 5744 5745 5745 5746 5748 5749 5751 5753 5755 5756 5759 5761 5763 5765 5766 5768 5769 5770 5771 5772 5774 5775 5776 5776 5777 5777 5779 5779 5778 5779 5780 5780 5785 5780 5780 5780 5779 5779 5781 5781 5780
5740 5740 5741 5742 5742 5743 5743 5744 5745 5746 5748 5750 5752 5753 5755 5757 5759 5761 5762 5763 5764 5765 5766 5767 5768 5770 5771 5771 5771 5772 5771 5772 5773 5773 5772 5773 5777 5775 5774 5774 5774 5775 5774 5775 5775
5737 5737 5738 5739 5739 5740 5741 5742 5742 5744 5745 5746 5748 5750 5751 5753 5754 5754 5757 5757 5759 5760 5761 5762 5762 5764 5765 5765 5765 5762 5764 5766 5767 5767 5764 5765 5769 5769 5768 5767 5769 5768 5767 5767 5767
5735 5735 5735 5735 5736 5736 5737 5739 5741 5742 5741 5743 5744 5745 5746 5747 5748 5749 5750 5751 5752 5753 5753 5753 5756 5760 5757 5755 5756 5756 5756 5757 5761 5758 5754 5757 5759 5764 5762 5761 5762 5762 5761 5760 5759
5730 5731 5732 5732 5732 5733 5733 5734 5735 5736 5737 5737 5738 5740 5741 5741 5742 5743 5744 5745 5746 5746 5745 5747 5748 5749 5748 5748 5748 5748 5748 5749 5750 5749 5743 5746 5748 5752 5754 5754 5752 5751 5752 5750 5749
5725 5726 5727 5727 5728 5728 5729 5730 5730 5730 5732 5733 5731 5733 5735 5736 5736 5736 5737 5737 5738 5739 5738 5738 5741 5741 5740 5739 5738 5740 5738 5738 5737 5738 5735 5733 5735 5740 5744 5745 5744 5743 5741 5741 5740
5719 5719 5720 5721 5723 5722 5723 5724 5724 5725 5726 5729 5728 5728 5727 5728 5729 5729 5729 5730 5729 5730 5729 5729 5732 5732 5731 5731 5729 5728 5729 5726 5726 5725 5725 5725 5720 5726 5735 5736 5727 5728 5726 5725 5726
5713 5713 5714 5714 5715 5716 5717 5717 5718 5719 5719 5722 5721 5721 5721 5721 5722 5721 5721 5720 5718 5718 5720 5721 5720 5721 5721 5721 5718 5721 5717 5715 5713 5713 5711 5715 5707 5712 5719 5721 5719 5716 5717 5719 5719
5706 5706 5707 5708 5708 5709 5709 5709 5711 5712 5710 5712 5712 5713 5715 5714 5713 5713 5712 5711 5709 5709 5709 5712 5709 5711 5711 5710 5709 5708 5705 5704 5701 5701 5697 5706 5699 5699 5704 5704 5704 5704 5705 5706 5707
5697 5698 5699 5700 5701 5701 5701 5702 5702 5701 5701 5702 5704 5705 5705 5704 5703 5702 5702 5701 5698 5698 5700 5700 5701 5702 5699 5698 5699 5698 5695 5689 5687 5686 5686 5691 5684 5686 5688 5689 5686 5687 5691 5692 5693
5688 5689 5690 5691 5691 5691 5692 5692 5692 5692 5693 5692 5693 5693 5692 5693 5691 5690 5690 5688 5686 5685 5684 5685 5690 5689 5689 5687 5685 5683 5682 5679 5670 5672 5674 5673 5667 5670 5672 5674 5673 5669 5672 5674 5677
5680 5681 5682 5682 5682 5682 5682 5682 5682 5683 5683 5682 5681 5681 5681 5681 5681 5678 5677 5676 5674 5674 5672 5669 5674 5674 5673 5671 5670 5669 5667 5666 5656 5656 5654 5658 5657 5655 5656 5657 5656 5655 5653 5655 5654
5673 5674 5674 5674 5675 5675 5675 5675 5674 5674 5674 5674 5673 5672 5672 5671 5669 5667 5666 5662 5659 5657 5655 5652 5652 5658 5658 5657 5657 5651 5650 5646 5643 5637 5636 5639 5639 5639 5639 5639 5639 5640 5639 5638 5639
5666 5667 5667 5668 5668 5668 5668 5668 5667 5666 5665 5665 5663 5662 5661 5660 5658 5656 5653 5652 5650 5646 5641 5638 5634 5642 5640 5641 5637 5634 5630 5628 5625 5621 5618 5618 5617 5622 5622 5620 5620 5620 5620 5620 5620
5661 5662 5662 5662 5662 5660 5659 5659 5659 5656 5655 5655 5654 5653 5651 5649 5647 5645 5643 5640 5637 5633 5629 5626 5618 5620 5621 5624 5617 5612 5610 5608 5603 5604 5601 5601 5598 5604 5604 5602 5602 5601 5601 5601 5601
5657 5657 5657 5656 5655 5654 5653 5652 5650 5650 5648 5646 5645 5643 5641 5639 5635 5633 5630 5626 5623 5617 5611 5611 5605 5602 5607 5607 5599 5590 5590 5591 5588 5584 5584 5582 5579 5583 5583 5583 5582 5582 5582 5582 5581
5654 5653 5651 5650 5648 5646 5645 5644 5642 5641 5640 5637 5635 5633 5629 5626 5622 5618 5614 5610 5604 5599 5593 5588 5586 5584 5585 5585 5575 5573 5573 5575 5572 5565 5562 5558 5559 5560 5561 5561 5562 5561 5560 5561 5561
5648 5647 5645 5643 5642 5639 5638 5636 5633 5631 5629 5626 5623 5620 5616 5612 5608 5603 5599 5594 5588 5580 5573 5569 5567 5563 5564 5562 5552 5548 5549 5550 5549 5548 5543 5542 5540 5540 5540 5540 5539 5539 5540 5541 5542
5642 5640 5637 5634 5632 5630 5628 5625 5622 5619 5617 5613 5608 5604 5598 5594 5589 5586 5579 5571 5570 5563 5554 5546 5546 5538 5543 5535 5529 5523 5526 5525 5522 5523 5523 5523 5521 5522 5521 5518 5516 5515 5515 5515 5516
5635 5633 5629 5625 5622 5620 5617 5614 5610 5606 5603 5598 5595 5590 5584 5579 5573 5565 5559 5553 5548 5544 5537 5532 5523 5518 5521 5509 5505 5504 5505 5503 5501 5499 5501 5499 5498 5497 5496 5495 5495 5496 5495 5494 5495